Starlink 33821

operational
NORAD ID: 63859 Int'l Des: 2025-093 Owner: SPXS Country: US Constellation: starlink
LEOCIRCULAR

Starlink 33821について

説明を読み込み中...

リアルタイム位置

3D地球を読み込み中...

次回通過

高度履歴

Altitude vs Time

uPlot chart will show altitude changes over time

軌道要素

1 63859U 25093Z 26062.17406920 .00025142 00000-0 92060-3 0 9999
2 63859 42.9994 114.8312 0003150 295.8474 64.2052 15.27557889 46958
Epoch: Mar 3, 2026 • Age: 20 hours

現在のステータス

高度 482.0 km
速度 7.63 km/s
衛星直下点 -2.59°S, 8.97°E
打ち上げ日 May 7, 2025
運用期間 0.8 years
タイプ internet

技術仕様

分類 Payload
質量 575.00 kg
乾燥質量 530.00 kg
総質量 575.00 kg
長さ 0.30 m
直径 4.10 m
スパン 29.00 m
形状 Box + pan
製造者 SPXS
バスタイプ Starlink V2MO
フェーズステータス In Orbit
所有者/国 SPXS/US

大規模コンステレーション

Loading constellations...